sat.trackr.live / text

‹ back to catalog

COSMOS 2533

NORAD 43867 · 2018-107A

PAYLOAD ACTIVE UNKNOWN

§ Identity

Operator
Country
CIS
Launch date
2018-12-21
Launch site
TYMSC
Launch vehicle
Mass (kg)
RCS (m²)

Purposes: comms

External: N2YO · Heavens-Above · Gunter

§ Orbital elements

Epoch: 2026-05-24T17:48:35.901216Z

Period
1,436.02 min
Inclination
0.0453°
Eccentricity
0.0000251
Mean motion
1.00277164 rev/d
Perigee alt
35,784.0 km
Apogee alt
35,786.1 km
Semi-major
42,163.2 km
B*
0.0000e+0
RAAN
109.6388°
Arg perigee
46.5591°
Mean anomaly
63.2876°
Rev number
2,721

§ Raw data

COSMOS 25331 43867U 18107A   26144.74208219 -.00000043  00000+0  00000+0 0  99912 43867   0.0453 109.6388 0000251  46.5591  63.2876  1.00277164 27217

JSON: /api/v1/satellites/43867 · /tle

For live sub-satellite position, see the globe view (requires WebGL).

§ Visibility from observer

Set your observer location to see the next 7 days of passes ≥ 10°. The values pass through the URL so the page stays shareable.

No JS? Fill the form by hand. The geolocation button needs JavaScript.